Weather History for KTCC - September, 2013

Change the Weather History Date:

Wednesday, September 25, 2013

  Actual Average Record
Temperature  
Mean Temperature 72 °F -  
Max Temperature 88 °F 81 °F 94 °F (1947)
Min Temperature 57 °F 50 °F 28 °F (2000)
Cooling Degree Days 8    
Growing Degree Days 22 (Base 50)    
Moisture  
Dew Point 44 °F    
Average Humidity 39    
Maximum Humidity 58    
Minimum Humidity 20    
Precipitation  
Precipitation 0.00 in - - ()
Sea Level Pressure  
Sea Level Pressure 29.70 in    
Wind  
Wind Speed 11 mph (SW)    
Max Wind Speed 23 mph    
Max Gust Speed 33 mph    
Visibility 10 miles    
Events      
Averages and records for this station are not official NWS values.
T = Trace of Precipitation, MM = Missing Value Source: NWS Daily Summary

Daily Weather History Graph

Daily Weather History Graph

Search for Another Location

Airport or City:

Trip Planner

Search our weather history database for the weather conditions in past years. The results will help you decide how hot, cold, wet, or windy it might be!

Date:

Astronomy

Sep. 25, 2013 Rise Set
Actual Time 6:44 AM MDT 6:46 PM MDT
Civil Twilight 6:19 AM MDT 7:11 PM MDT
Nautical Twilight 5:50 AM MDT 7:41 PM MDT
Astronomical Twilight 5:20 AM MDT 8:10 PM MDT
Moon 11:06 PM MDT 12:40 PM MDT
Length of Visible Light 12h 52m
Length of Day
12h 01m
Waning Gibbous, 63% of the Moon is Illuminated
Sep 25
Waning Gibbous
Sep 26
Last Quarter
Oct 4
New
Oct 11
First Quarter
Oct 18
Full

Hourly Weather History & Observations

Time (MDT) Temp. Dew Point Humidity Pressure Visibility Wind Dir Wind Speed Gust Speed Precip Events Conditions
12:53 AM 60.1 °F 45.0 °F 57% 29.85 in 10.0 mi SSW 5.8 mph - N/A   Clear
1:53 AM 61.0 °F 45.0 °F 56% 29.83 in 10.0 mi Calm Calm - N/A   Clear
2:53 AM 60.1 °F 44.1 °F 55% 29.81 in 10.0 mi SW 4.6 mph - N/A   Clear
3:53 AM 59.0 °F 44.1 °F 58% 29.79 in 10.0 mi SW 9.2 mph - N/A   Clear
4:53 AM 59.0 °F 44.1 °F 58% 29.78 in 10.0 mi SW 11.5 mph - N/A   Clear
5:53 AM 60.1 °F 43.0 °F 53% 29.78 in 10.0 mi SSW 15.0 mph - N/A   Clear
6:53 AM 57.9 °F 43.0 °F 58% 29.81 in 10.0 mi South 3.5 mph - N/A   Clear
7:53 AM 62.1 °F 44.1 °F 52% 29.81 in 10.0 mi SW 8.1 mph - N/A   Clear
8:53 AM 68.0 °F 45.0 °F 43% 29.80 in 10.0 mi WSW 15.0 mph - N/A   Clear
9:53 AM 73.9 °F 44.1 °F 34% 29.80 in 10.0 mi SW 18.4 mph 25.3 mph N/A   Clear
10:53 AM 79.0 °F 43.0 °F 28% 29.76 in 10.0 mi SW 21.9 mph 25.3 mph N/A   Clear
11:53 AM 82.0 °F 42.1 °F 24% 29.73 in 10.0 mi SSW 23.0 mph 33.4 mph N/A   Clear
12:53 PM 84.9 °F 42.1 °F 22% 29.68 in 10.0 mi SSW 17.3 mph 29.9 mph N/A   Clear
1:53 PM 84.9 °F 41.0 °F 21% 29.65 in 10.0 mi SW 18.4 mph 26.5 mph N/A   Clear
2:53 PM 87.1 °F 42.1 °F 21% 29.61 in 10.0 mi SSW 21.9 mph 27.6 mph N/A   Clear
3:53 PM 88.0 °F 42.1 °F 20% 29.59 in 10.0 mi SSW 18.4 mph 27.6 mph N/A   Clear
4:53 PM 87.1 °F 42.1 °F 21% 29.58 in 10.0 mi SSW 18.4 mph 26.5 mph N/A   Clear
5:53 PM 84.9 °F 42.1 °F 22% 29.58 in 10.0 mi SSW 17.3 mph 28.8 mph N/A   Clear
6:53 PM 80.1 °F 41.0 °F 25% 29.60 in 10.0 mi SSW 15.0 mph - N/A   Clear
7:53 PM 73.9 °F 43.0 °F 33% 29.62 in 10.0 mi South 9.2 mph - N/A   Clear
8:53 PM 68.0 °F 46.0 °F 45% 29.62 in 10.0 mi SW 8.1 mph - N/A   Clear
9:53 PM 69.1 °F 46.9 °F 45% 29.60 in 10.0 mi West 3.5 mph - N/A   Clear
10:53 PM 71.1 °F 46.9 °F 42% 29.58 in 10.0 mi SW 15.0 mph - N/A   Clear
11:53 PM 69.1 °F 48.0 °F 47% 29.57 in 10.0 mi SW 13.8 mph - N/A   Clear